Location: Henry Coe State Park
(37.1875°N, 121.5503°W)
Time: 13:28:48
(UTC-07:00)

Daily predictions for brighter satellites

Satellite Brightness Start Highest point End
(mag) Time Altitude Azimuth Time Altitude Azimuth Time Altitude Azimuth
Cosmos 192 4.5 19:08:44 10° S 19:13:33 55° ESE 19:18:24 10° NNE
Cosmos 1805 4.4 19:12:54 10° SE 19:15:59 22° E 19:19:04 10° NE
Cosmos 2056 Rocket 3.6 19:11:11 10° NNW 19:16:38 76° ENE 19:22:02 10° SSE
Cosmos 1953 3.4 19:14:30 10° SE 19:17:44 24° E 19:20:57 10° NE
Cosmos 2034 Rocket 4.5 19:15:02 10° SSE 19:20:43 38° E 19:26:29 10° NNE
Cosmos 1464 Rocket 4.1 19:15:41 10° SSE 19:21:44 54° E 19:27:44 10° NNE
Cosmos 2278 Rocket 3.3 19:16:49 10° NNW 19:22:16 50° WSW 19:27:41 10° S
CZ-4C R/B 4.1 19:19:30 10° WSW 19:24:11 30° NW 19:29:21 10° NNE
ALOS 3.9 19:22:12 10° ESE 19:24:58 16° ENE 19:27:45 10° NNE
Cosmos 1707 3.9 19:24:13 10° NNW 19:27:58 49° W 19:31:40 10° SSW
SKYMED 2 4.2 19:25:16 10° N 19:29:35 63° WNW 19:33:51 10° SSW
Cosmos 2297 3.7 19:24:07 10° NNW 19:29:48 88° ENE 19:35:26 10° SSE
GPS 2-04 Rocket1 3.5 19:26:53 10° SW 19:29:56 29° SSE 19:32:46 12° E
ATLAS CENTAUR R/B 3.3 19:26:57 10° SW 19:31:16 88° SE 19:44:52 10° NE
Cosmos 1408 Rocket 3.9 19:28:05 10° N 19:32:12 41° E 19:36:18 10° SSE
SL-19 R/B 4.3 19:26:59 10° SSE 19:32:35 81° ENE 19:38:31 10° NNW
Meteor 1-22 Rocket 4.3 19:28:56 10° SSW 19:34:17 79° W 19:39:36 10° N
BREEZE-M DEB (TANK) 4.3 19:31:25 10° WNW 19:34:58 66° SW 19:46:53 10° SE
Aureole 2 Rocket 4.0 19:32:17 10° SW 19:36:32 50° WNW 19:40:43 10° N
Cosmos 1943 4.4 19:34:47 10° SE 19:38:41 20° E 19:42:36 10° NE
Cosmos 2369 Rocket 3.8 19:35:51 10° NNE 19:39:11 16° NE 19:41:35 12° E
Cosmos 1470 4.3 19:37:10 10° SE 19:39:36 16° E 19:42:02 10° NE
Meteor 1-24 Rocket 4.0 19:37:50 10° NNW 19:43:24 70° W 19:48:46 10° S
SAR-Lupe-1 4.0 19:39:54 10° SSE 19:43:27 86° ENE 19:47:02 10° NNW
Cosmos 1603 3.8 19:38:04 10° S 19:43:37 54° ESE 19:49:13 10° NNE
FREGAT/IRIS 2.6 19:42:11 10° SSE 19:45:14 63° ENE 19:48:18 10° N
SL-8 R/B 3.7 19:41:07 10° SW 19:45:51 65° SE 19:50:18 12° ENE
NOAA 12 4.0 19:41:57 10° SSE 19:47:12 79° ENE 19:52:29 10° N
USA 215 3.3 19:41:01 10° NE 19:47:32 67° SE 19:54:00 10° SW
SJ-6B 2.8 19:43:47 10° SSE 19:47:44 90° S 19:51:49 10° NNW
CZ-4B DEB 4.4 19:47:41 17° ENE 19:47:51 18° ENE 19:50:07 10° NNE
Meteor 1-29 3.5 19:45:54 10° NNE 19:49:10 37° E 19:52:25 10° SSE
BREEZE-M DEB (TANK) 3.4 19:50:19 10° WNW 19:52:34 34° SSW 19:57:29 10° SSE
Helios 1A 3.3 19:48:54 10° SE 19:52:55 45° ENE 19:56:58 10° N
Resurs 1-3 4.0 19:48:53 10° SE 19:52:58 40° ENE 19:57:06 10° N
SeaSat 1 3.7 19:55:12 19° ESE 19:55:12 19° ESE 19:58:35 10° SSE
Cosmos 1674 3.9 19:52:41 10° NNE 19:55:50 23° ENE 19:56:24 22° E
Resurs 01 Rocket 1.7 19:52:05 10° SSE 19:56:27 59° ENE 20:00:50 10° N
Abrixas 2.4 19:56:41 10° WSW 19:59:41 80° NNW 20:01:22 24° NE
Cosmos 724 4.3 19:54:05 10° SSW 19:59:59 88° WNW 20:06:05 10° NNE
ASTRO E2 3.9 19:56:56 10° WSW 20:00:35 32° S 20:02:43 19° SE
Cosmos 1758 3.3 19:56:41 10° S 20:00:45 89° E 20:04:52 10° N
Cosmos 1743 Rocket 3.9 19:57:17 10° N 20:01:31 41° E 20:05:07 13° SSE
In-Cosmos 22 4.2 19:57:32 10° N 20:03:21 87° E 20:09:04 10° S
Cosmos 1346 3.2 20:03:28 10° N 20:06:22 45° E 20:06:48 41° ESE
FengYun 1-2 T 4.1 20:05:58 10° SSE 20:11:25 67° ENE 20:16:52 10° N
SEDSat Delta rocket 4.4 20:05:49 10° WSW 20:12:14 52° S 20:16:07 25° ESE
Cosmos 1452 Rocket 3.6 20:07:48 10° NNW 20:13:05 79° WSW 20:18:18 10° SSE
ATLAS 5 CENTAUR R/B 3.3 20:14:28 10° WSW 20:18:55 38° NW 20:23:43 10° NNE
GP-B 4.1 20:20:23 10° NNE 20:23:17 29° NE 20:23:17 29° NE
Cosmos 1544 3.6 20:23:43 10° SSW 20:27:24 61° W 20:31:07 10° N
Nadezhda 4 Rocket 3.9 20:24:16 10° N 20:30:34 87° E 20:36:46 10° S
Helios 1B rocket 3.4 20:27:30 10° N 20:31:28 47° WNW 20:35:24 10° SSW
ASTEX 1 3.2 20:26:49 10° N 20:31:44 75° E 20:36:36 10° S
Meteor 1-21 Rocket 4.5 20:28:21 10° NNW 20:33:52 68° W 20:39:20 10° S
Cosmos 1420 Rocket 3.9 20:28:47 10° NNW 20:34:07 87° ENE 20:37:14 26° SSE
CZ-2D R/B 3.1 20:35:31 68° ENE 20:35:31 68° ENE 20:39:23 10° N
Cosmos 1092 Rocket 3.8 20:32:28 10° N 20:38:40 73° E 20:43:13 19° SSE
Cosmos 1655 Rocket 4.5 20:35:31 10° N 20:40:56 37° ENE 20:40:56 37° ENE
Cosmos 2142 Rocket 4.5 20:36:44 10° S 20:42:58 63° E 20:49:18 10° NNE
OAO 3 Rocket 3.3 20:40:34 10° W 20:45:16 60° S 20:45:42 57° SSE
H-2A R/B 2.9 20:49:41 74° NW 20:49:41 74° NW 20:53:18 10° NNW
ISS -1.9 20:46:55 10° WSW 20:49:32 37° WNW 20:49:32 37° WNW
Cosmos 1634 Rocket 3.8 20:45:23 10° S 20:51:37 79° E 20:57:50 10° N
Cosmos 2026 Rocket 4.1 20:45:55 10° N 20:51:48 50° ENE 20:51:48 50° ENE
CENTAUR R/B 2.4 20:46:01 10° SSW 20:51:59 89° WNW 20:58:43 10° NNE
FENGYUN 3A 3.9 20:51:51 19° S 20:55:47 66° WSW 21:01:10 10° NNW
Envisat 4.5 20:59:46 24° NNE 20:59:46 24° NNE 21:02:08 10° N
Cosmos 2151 4.4 20:53:47 10° N 20:55:55 29° N 20:55:55 29° N
ALOS 3.1 20:59:22 23° SSW 21:01:59 48° W 21:06:31 10° NNW
Cosmos 1174 4.4 21:00:00 10° SW 21:04:49 60° WNW 21:04:49 60° WNW
Gbstr 26 Del rocket 3.6 21:03:20 10° WSW 21:07:50 64° NW 21:08:14 61° N
Cosmos 2195 Rocket 4.4 21:07:28 10° N 21:13:50 88° E 21:14:41 70° S
Cosmos 158 Rocket 4.5 21:10:22 10° SSW 21:15:08 54° WNW 21:19:55 10° N
Cosmos 1943 3.9 21:16:49 10° SW 21:22:16 50° WNW 21:27:45 10° NNE
Cosmos 1943 Rocket 3.4 21:17:59 10° N 21:21:11 31° NNE 21:21:11 31° NNE
Cosmos 2369 Rocket 2.3 21:18:09 10° NNW 21:23:24 71° WNW 21:23:24 71° WNW
USA 215 4.5 21:24:24 10° NNE 21:30:14 37° NNW 21:36:05 10° W
ERS-1 Rocket 4.4 21:35:24 30° NNW 21:35:24 30° NNW 21:37:55 10° NNW
SeaSat 1 4.0 21:35:11 28° WSW 21:35:11 28° WSW 21:37:38 10° SW
